Location: Harwich
(41.7160°N, 69.9939°W)
Time: 03:35:19
(UTC+02:00)

A-11 Canister half - Pass Details

Date: 01 December 2023
Orbit: 1524 x 1683 km, 47.3° (Epoch: 08 October)

Event Time Altitude Azimuth Distance (km) Brightness Sun altitude
Rises 08:59:54 0° 297° (WNW) 4,865 - -41.8°
Reaches altitude 10° 09:03:20 10° 289° (WNW) 3,853 - -41.1°
Maximum altitude 09:12:02 38° 226° (SW) 2,249 - -39.5°
Exits shadow 09:17:01 23° 177° (S) 2,847 10.3 -38.6°
Drops below altitude 10° 09:20:29 10° 163° (SSE) 3,728 11.1 -38.0°
Sets 09:23:46 0° 155° (SSE) 4,692 11.8 -37.4°
